Dewpoint
72 71 71 70 52 41 41 44 44 47 48 50 51 52 52 53 48 49 58 60 66 67 70 71 73 73 73 73 73 72 71 71 71 71 71 71 71 71 71 72 72 71 72 71 71 71 71 72 71
70 70 72 65 41 37 43 45 45 47 50 51 54 54 54 56 58 55 56 63 64 65 67 70 73 73 72 72 72 72 71 70 71 71 72 71 71 71 72 72 72 71 71 72 71 71 71 71 71
71 72 60 47 40 41 42 45 47 48 51 51 53 55 56 58 56 56 57 62 63 64 65 71 73 73 72 72 71 71 71 71 72 72 71 72 72 71 69 71 72 71 71 72 72 70 70 71 71
66 67 54 38 38 43 44 46 47 47 49 52 53 55 60 58 57 59 59 60 62 63 64 72 73 72 72 72 72 71 71 71 71 71 72 72 72 72 70 72 72 71 71 72 72 72 71 70 70
65 57 38 39 41 43 45 47 47 44 46 47 48 52 56 61 63 60 60 61 61 62 64 69 73 72 71 71 71 71 71 72 71 71 72 72 72 72 72 71 71 71 72 70 71 72 72 71 70
53 49 36 36 41 45 48 49 46 47 47 48 51 54 59 63 60 61 61 60 62 62 64 67 72 72 71 72 71 72 73 72 72 72 72 72 72 72 72 71 72 70 70 71 72 72 72 72 71
52 40 38 38 41 44 47 48 46 48 48 46 49 50 61 61 59 61 61 61 61 62 63 65 67 69 72 71 72 73 73 71 72 72 72 73 73 72 72 72 71 71 72 71 71 71 71 72 71
53 46 36 39 40 44 48 48 48 48 49 51 50 50 56 62 60 60 60 60 60 61 63 64 65 67 68 70 73 73 72 72 73 73 73 72 71 71 71 71 72 72 70 70 71 71 71 71 71
52 39 37 39 40 45 48 48 49 51 50 53 54 50 54 62 61 59 60 61 61 61 61 63 67 66 70 65 69 71 72 73 71 71 72 72 66 67 67 69 70 71 71 71 72 71 71 71 71
45 39 39 44 43 45 48 48 49 50 50 54 56 56 59 61 61 59 58 60 61 62 61 62 62 63 65 62 67 67 67 69 70 70 69 69 69 69 69 69 70 71 71 71 70 71 72 71 64
42 39 42 43 45 46 47 48 50 50 49 52 56 57 57 58 59 57 56 57 59 62 62 62 64 64 63 62 64 65 65 66 68 70 69 69 69 69 69 69 70 71 71 72 71 70 69 68 71
37 37 42 45 48 47 47 48 49 50 51 51 56 56 55 55 55 55 54 55 58 61 61 62 64 66 64 65 64 63 64 65 65 67 69 69 68 68 69 67 68 69 68 69 69 68 70 69 72
36 36 42 47 47 47 49 48 50 50 51 54 55 53 52 52 55 55 55 55 58 60 61 62 64 67 67 68 64 63 64 65 65 66 67 68 68 69 69 69 68 70 69 68 69 69 68 69 69
36 40 44 46 47 48 47 49 50 52 53 54 53 52 51 53 55 55 55 55 56 58 59 60 63 65 67 67 67 65 66 66 67 67 67 70 69 70 70 70 68 70 69 70 70 70 70 69 67
41 40 43 45 46 47 48 48 49 53 54 53 52 52 52 54 56 57 58 57 57 56 57 59 62 63 67 67 66 66 65 65 66 66 68 71 72 71 73 70 69 68 70 72 70 69 67 65 64
39 39 35 42 44 47 46 39 49 54 54 53 51 52 53 55 56 58 59 59 59 55 56 59 60 62 66 65 66 65 66 66 67 67 67 70 71 73 72 70 68 70 71 68 67 67 64 64 64
37 33 33 35 38 41 42 38 47 52 53 53 51 51 53 55 56 57 58 60 60 59 58 58 60 59 62 66 67 67 67 68 67 67 68 70 72 73 72 68 68 71 69 66 65 64 64 61 63
31 32 31 29 30 33 38 38 46 50 52 52 52 51 51 53 54 56 58 58 60 61 62 61 60 60 62 64 66 65 66 67 67 67 68 72 71 72 71 68 70 70 67 63 64 66 63 64 63
33 31 30 30 32 30 31 34 38 48 50 51 52 53 52 52 53 55 57 58 60 62 62 65 61 62 65 65 64 64 64 65 66 68 72 72 71 72 70 69 70 69 66 66 65 63 61 61 62
32 32 30 31 33 27 26 30 34 44 47 48 50 51 53 53 52 54 56 57 59 62 63 64 65 64 67 65 65 65 66 66 66 67 71 72 72 72 70 70 69 69 63 65 64 62 58 59 62
31 31 30 29 28 29 28 24 36 39 45 48 48 49 50 52 52 51 54 56 58 60 63 64 67 67 67 65 67 68 69 69 68 68 69 71 71 70 71 72 69 69 64 60 61 60 61 55 59
27 32 30 28 25 22 26 17 23 35 41 45 47 48 48 50 52 51 50 53 55 57 61 64 66 68 69 69 66 67 65 64 64 65 65 69 70 71 72 72 70 67 62 63 62 61 59 61 54
26 30 28 26 25 22 19 20 17 20 22 24 45 44 47 49 50 52 52 51 52 55 58 61 65 67 68 69 69 67 67 64 65 66 68 70 71 72 72 71 69 66 62 65 65 65 64 61 57
26 24 23 23 21 19 17 17 15 17 19 21 32 38 45 49 50 51 53 53 54 55 58 60 64 67 69 69 70 68 66 66 64 67 70 71 73 72 71 70 68 67 65 66 66 66 66 63 60
23 19 17 14 12 16 16 16 15 17 17 27 38 42 46 49 50 51 52 53 55 56 58 60 64 67 69 69 69 69 69 69 68 69 68 69 70 70 70 69 68 66 66 67 67 67 66 63 60
16 11 9 8 12 13 12 7 9 18 20 38 44 47 49 51 50 51 52 54 55 57 59 60 63 67 69 69 69 70 70 68 68 68 67 69 68 67 70 69 67 67 67 68 68 65 62 63 59
12 10 8 6 8 4 2 6 11 28 35 41 44 48 51 53 53 52 52 54 55 57 59 61 63 67 68 68 69 70 70 69 67 67 69 66 68 68 71 69 68 67 68 68 67 64 62 60 58
10 12 9 5 4 6 2 5 13 24 36 38 41 44 48 52 54 54 54 54 55 56 58 61 62 66 66 66 68 69 70 70 69 70 71 70 71 70 70 69 68 68 68 68 66 64 63 59 53
9 8 7 5 5 2 4 7 17 34 39 38 40 43 45 45 47 48 50 54 55 57 58 60 61 63 65 65 66 67 68 69 70 69 71 72 71 71 70 69 69 68 67 67 65 62 61 56 55
11 10 7 5 12 4 4 7 34 39 39 39 41 43 43 45 45 49 51 54 55 56 58 60 61 61 63 63 66 67 68 68 68 68 70 72 71 71 70 69 69 68 67 67 64 57 56 53 52
Wind_Speed
13 9 3 4 4 12 16 12 11 10 7 4 8 3 12 11 6 14 24 19 20 20 16 15 14 18 17 17 16 16 16 15 14 12 11 10 9 7 8 8 7 7 8 8 8 8 9 9 8
9 6 3 5 6 16 15 11 11 9 6 12 10 6 6 11 11 20 19 21 20 19 19 17 14 15 17 15 16 14 13 13 11 9 9 10 9 7 6 6 6 7 6 8 9 9 10 9 9
6 3 4 2 14 15 14 12 13 10 10 8 5 7 5 6 19 19 23 21 19 18 18 18 14 14 15 13 13 12 10 10 9 7 8 8 8 7 6 7 6 8 8 9 9 10 10 10 10
2 4 5 14 16 12 13 11 10 11 8 4 7 11 10 10 16 13 23 21 19 17 17 18 16 15 13 12 10 11 9 9 8 6 6 7 6 6 7 7 7 8 8 9 9 8 9 9 9
4 6 13 14 14 12 10 9 4 9 7 8 6 11 18 8 10 23 21 19 19 18 18 17 14 13 13 11 10 9 8 7 7 6 6 6 6 6 5 6 7 6 7 8 8 6 8 8 8
5 6 14 16 13 10 8 8 5 13 12 14 20 22 12 12 20 21 19 17 17 16 19 19 14 13 12 10 9 8 8 6 5 5 5 6 6 5 5 5 5 5 6 6 7 6 6 7 7
5 7 10 11 9 9 7 5 7 11 11 12 14 13 9 15 21 19 17 16 16 14 15 16 16 13 13 12 10 8 7 6 4 4 3 4 5 4 3 4 4 3 4 5 5 3 3 3 5
5 6 9 8 10 9 7 5 6 9 13 14 11 7 16 16 20 18 17 16 15 13 14 13 13 13 11 13 8 8 7 5 4 4 3 4 4 4 4 5 4 1 2 2 3 3 3 2 3
2 2 10 10 9 8 9 7 4 4 14 4 3 9 23 23 21 19 17 16 14 13 15 15 15 12 10 10 11 8 6 5 5 6 4 8 1 4 4 7 1 2 2 1 3 5 5 5 8
4 6 5 4 6 8 9 5 8 6 10 7 10 16 25 25 22 21 19 18 17 16 15 14 14 14 10 7 8 6 6 8 3 2 5 1 1 2 4 3 2 4 5 5 4 5 7 10 9
4 6 2 4 4 5 9 6 5 8 5 7 16 24 25 23 21 20 18 17 17 16 14 11 10 11 11 8 8 7 6 4 7 3 3 3 1 2 4 3 4 4 4 2 3 7 12 5 2
3 2 1 4 7 7 8 7 4 2 7 11 18 24 25 23 21 19 17 16 16 15 14 13 12 9 9 8 8 7 5 5 4 5 4 3 4 1 2 3 4 3 3 5 7 6 6 5 3
5 4 2 4 7 8 7 5 4 4 6 15 21 22 23 22 19 16 15 15 14 15 14 14 12 10 9 8 7 6 6 6 6 5 6 3 3 1 3 3 5 5 5 4 5 6 5 5 7
6 2 5 6 7 7 5 5 3 6 12 16 22 23 22 20 19 16 15 15 15 14 15 15 14 13 12 10 7 6 6 5 4 4 4 5 5 2 4 4 5 4 4 4 4 5 6 6 5
1 4 7 6 4 3 3 6 5 13 15 17 20 22 21 21 20 18 16 15 15 15 15 15 14 15 13 11 10 8 7 7 6 5 4 5 6 4 5 3 6 5 4 3 3 3 3 5 5
5 6 5 5 3 3 7 6 10 15 18 19 21 22 23 22 22 19 17 15 15 14 15 14 14 14 14 11 9 8 7 6 5 5 6 7 8 7 5 4 2 2 5 4 3 3 4 4 5
7 6 2 6 0 2 8 9 7 14 17 17 20 22 23 23 21 20 19 16 14 15 15 15 15 14 13 12 10 9 6 8 7 6 5 4 6 7 6 3 2 2 2 3 4 2 5 6 5
7 6 5 1 3 4 8 8 7 15 18 20 20 21 23 25 26 23 21 18 16 15 14 14 15 14 12 10 10 9 8 7 6 5 3 4 4 6 5 1 1 3 3 3 3 4 5 4 6
6 6 6 1 3 7 5 9 7 15 20 21 20 21 22 23 23 24 22 20 18 16 16 16 17 16 14 13 12 11 10 8 7 6 3 5 6 6 4 3 4 3 2 3 2 3 0 2 4
11 11 10 2 3 9 9 10 6 14 21 21 22 22 22 21 21 24 24 22 20 20 18 18 18 18 17 14 12 10 8 7 8 6 6 7 7 6 6 4 3 1 1 1 2 3 3 0 4
16 16 7 7 8 6 10 14 6 5 13 15 22 20 21 22 22 23 25 24 22 20 20 21 21 20 19 16 12 10 7 7 8 9 9 7 7 5 5 5 2 3 2 3 1 3 3 2 1
22 16 8 7 7 11 7 17 7 6 6 15 17 20 22 24 23 22 24 24 23 22 20 20 20 20 19 19 16 16 13 11 9 7 7 7 8 7 6 6 4 2 2 4 4 5 4 6 2
20 4 7 7 11 9 16 10 11 8 7 3 9 14 19 25 26 26 23 23 23 21 20 19 19 21 20 20 19 16 15 11 9 7 6 8 7 7 7 7 6 5 4 4 4 4 5 4 5
12 8 10 9 13 16 18 7 15 5 9 9 2 6 12 21 25 26 24 21 20 19 18 17 19 21 20 19 19 19 15 13 8 5 6 7 7 8 8 8 7 6 6 6 5 4 4 5 4
14 17 18 16 18 19 3 10 13 17 13 11 10 4 5 14 21 24 25 24 20 20 20 20 20 20 20 21 19 20 18 15 12 10 9 9 8 8 11 10 9 9 6 6 5 4 4 4 4
18 23 17 13 16 11 4 9 11 5 10 7 4 3 3 11 15 20 23 21 21 21 21 21 21 20 21 22 21 19 19 17 14 12 10 11 10 9 12 12 10 8 9 7 6 6 4 4 4
13 13 7 11 5 11 13 3 9 4 11 8 7 8 8 9 10 13 17 21 22 22 22 22 22 22 23 22 20 19 19 17 17 15 13 13 12 9 13 12 11 11 10 9 8 6 5 4 3
7 10 11 12 6 9 3 5 3 9 10 9 8 8 8 7 7 8 11 15 19 21 22 22 21 22 23 21 19 19 19 17 15 14 13 10 9 12 14 14 12 10 10 10 7 8 6 5 4
10 13 9 6 6 9 5 5 9 9 7 9 8 4 4 3 6 6 7 10 13 15 17 21 21 19 20 22 21 19 19 21 19 17 14 13 14 15 16 14 13 12 11 9 6 7 7 7 7
11 18 16 10 12 4 9 2 9 10 11 9 8 6 5 1 2 4 6 7 11 14 17 19 19 20 21 22 20 21 20 20 20 20 18 16 17 16 16 16 14 12 11 9 8 9 9 10 9
Wind_Direction
158 168 181 243 201 75 64 71 89 100 119 72 96 51 76 40 18 101 135 132 141 139 135 137 130 122 124 127 127 118 117 118 115 115 117 115 112 111 101 103 103 107 108 111 105 103 116 118 116
149 158 231 279 46 73 73 90 69 62 94 116 102 103 60 74 92 125 132 140 144 141 141 142 133 123 123 125 121 126 126 123 120 125 123 116 126 126 112 107 106 112 113 113 107 97 110 118 116
163 257 298 33 48 51 78 84 95 95 118 142 115 64 54 80 123 135 135 142 142 141 139 127 137 133 130 128 131 131 136 127 119 118 112 118 110 103 106 91 114 121 121 114 104 110 111 113 114
206 213 233 62 72 62 91 108 100 108 108 116 117 90 92 110 129 136 142 146 144 143 137 139 141 137 134 136 146 141 144 134 136 131 122 104 119 112 109 101 110 119 116 102 107 112 115 118 115
228 248 88 76 76 79 78 102 83 99 86 113 149 109 114 117 122 141 147 153 146 144 131 145 142 140 144 152 158 150 151 152 140 149 117 115 128 111 104 109 100 92 96 107 106 113 121 123 125
249 260 61 64 72 85 88 107 82 90 100 102 112 120 101 123 143 149 153 154 153 146 145 141 149 155 159 164 166 164 159 149 146 116 102 112 112 96 97 94 99 102 102 95 98 107 128 132 129
315 22 55 68 78 90 101 107 100 101 112 112 129 123 109 147 147 151 156 156 152 156 141 152 158 165 176 173 180 152 148 155 156 122 111 122 103 108 89 106 99 73 86 122 109 96 118 133 134
305 287 67 56 51 81 119 89 110 95 93 124 141 148 159 160 155 154 157 158 156 159 149 155 157 173 171 163 152 161 155 158 122 113 162 124 168 157 162 198 131 173 165 140 138 165 181 192 172
286 265 65 58 59 103 144 126 114 92 140 98 68 154 137 154 158 159 163 161 159 172 168 170 163 165 180 145 147 172 179 181 181 184 181 212 228 135 178 79 65 287 299 228 208 195 219 211 217
305 11 44 12 65 99 157 156 144 151 142 122 108 115 138 154 163 168 171 168 174 175 179 175 169 159 161 162 146 182 160 154 164 202 176 102 123 95 298 21 232 261 268 266 235 229 230 225 256
37 33 354 46 57 112 147 165 153 137 185 141 146 144 152 160 170 174 177 175 178 175 179 177 173 159 166 168 170 172 169 160 162 177 202 168 263 167 230 209 200 218 195 238 226 262 220 236 271
300 43 355 62 132 134 152 144 151 182 36 134 147 155 157 167 175 179 180 177 177 181 181 181 175 173 184 169 185 167 181 185 195 151 200 181 220 229 311 331 313 275 330 312 269 257 270 264 212
280 29 36 121 143 132 141 149 60 168 96 132 145 158 165 170 174 178 181 177 183 183 185 182 183 184 190 194 181 179 183 189 179 181 185 214 256 272 275 324 315 318 300 290 295 270 288 283 262
333 308 114 142 127 146 155 142 189 132 136 144 155 166 172 172 173 175 186 186 188 190 184 184 189 183 195 201 198 192 197 188 206 199 186 215 271 277 315 306 312 326 290 294 320 323 299 291 286
186 186 141 131 173 143 177 195 213 149 154 159 170 172 175 178 174 181 187 190 189 192 185 189 192 186 193 199 200 208 199 196 211 220 213 235 244 234 289 315 316 315 333 298 275 277 295 292 296
221 242 192 122 206 123 239 351 137 166 167 172 177 179 179 182 185 184 185 192 180 194 192 192 193 194 189 195 198 211 217 220 220 229 234 224 238 249 256 274 344 310 281 294 300 321 297 265 320
212 208 223 142 18 294 243 322 134 181 180 182 185 187 188 189 196 189 191 192 191 189 187 196 197 201 195 195 205 215 209 228 233 238 242 200 226 226 258 284 325 277 283 304 325 318 315 325 308
182 197 193 205 70 292 270 282 156 185 196 194 193 195 198 198 198 195 197 197 196 190 192 196 197 203 197 196 210 217 221 234 235 229 226 191 202 199 237 220 272 260 249 295 352 335 357 332 340
252 242 218 158 64 311 310 292 198 191 200 204 203 200 203 207 200 197 199 199 200 200 197 197 200 195 192 198 206 212 219 221 224 232 210 211 204 195 211 206 184 250 299 9 344 305 251 347 356
221 230 220 271 200 308 325 294 221 190 215 213 210 207 206 204 204 197 196 199 201 200 204 204 203 198 200 199 209 219 221 222 231 224 222 222 203 204 201 202 170 158 136 12 353 331 297 251 17
228 236 234 291 326 241 312 271 149 201 223 226 224 216 213 209 203 196 195 196 201 202 203 207 208 200 200 209 201 199 210 227 224 227 227 211 211 212 205 189 197 160 245 89 23 34 355 344 87
239 211 253 270 296 293 351 300 264 143 229 231 231 226 217 211 205 203 197 196 201 205 203 208 208 206 204 202 205 211 216 226 223 228 210 198 208 205 191 174 172 197 102 101 98 68 29 322 3
242 178 253 270 277 279 274 259 290 268 275 359 210 228 223 211 205 205 201 196 199 200 200 204 206 205 206 204 217 209 227 228 227 222 196 221 187 196 175 168 156 156 172 116 108 98 46 57 350
232 216 230 259 272 271 258 267 289 321 335 323 202 259 242 207 206 199 205 198 198 197 197 198 201 204 201 203 209 218 219 228 227 218 203 205 196 178 170 165 165 164 143 149 126 95 71 44 42
218 229 241 235 237 250 81 276 280 305 317 348 321 331 209 198 198 201 197 200 198 196 195 197 198 202 198 201 205 210 212 208 211 211 197 196 193 204 171 174 176 173 165 149 131 113 95 66 54
213 221 228 228 243 252 127 280 281 1 316 8 22 44 161 178 189 199 201 203 202 202 200 197 194 198 197 201 204 203 206 205 213 208 197 194 195 207 165 179 179 166 166 158 143 138 105 95 84
168 224 262 286 252 273 275 271 264 65 51 62 60 94 119 151 176 192 200 202 204 203 203 202 195 197 198 200 199 201 204 210 207 211 201 196 198 179 174 174 179 177 171 166 157 126 124 104 93
258 183 205 226 267 272 152 242 52 35 38 42 72 93 104 132 162 187 199 211 205 209 200 198 203 199 197 197 200 200 202 202 208 208 207 197 178 178 172 170 178 185 174 166 169 145 121 108 99
192 218 239 317 301 295 247 142 56 38 44 57 65 72 111 138 169 197 198 201 214 210 204 200 201 198 199 199 199 201 198 200 198 201 201 187 179 176 180 168 169 181 180 171 157 120 123 111 102
225 235 218 225 183 242 308 3 59 63 71 65 60 64 75 99 211 186 186 184 194 193 196 198 201 200 201 201 196 197 199 196 196 200 192 184 175 176 179 174 168 172 179 168 158 148 130 127 122